EI4HQ Weather Reports


Display with metric or nautical units.
time (UTC)temp
F
wind
direction
speed
MPH
gust
MPH
rain 1hr
in
rain 24hr
in
rain mn
in
humidity
%
barometer
mb
20260508030003 45 321 2.0 3.0 0.00 0.00 0.00 87 1013.9
20260508025403 46 321 1.0 3.0 0.00 0.00 0.00 87 1013.9
20260508024503 46 0 0.0 0.0 0.00 0.00 0.00 87 1014.0
20260508023603 46 0 0.0 0.0 0.00 0.00 0.00 87 1014.0
20260508022703 46 0 0.0 0.0 0.00 0.00 0.00 87 1013.9
20260508021803 46 0 0.0 0.0 0.00 0.00 0.00 86 1013.9
20260508020903 46 0 0.0 0.0 0.00 0.00 0.00 86 1013.9
20260508020003 46 0 0.0 0.0 0.00 0.00 0.00 86 1013.8
20260508015403 46 321 0.0 1.0 0.00 0.00 0.00 86 1013.8
20260508014503 46 321 1.0 3.0 0.00 0.00 0.00 86 1013.8
20260508013603 46 311 2.0 4.0 0.00 0.00 0.00 86 1013.9
20260508012703 46 0 0.0 0.0 0.00 0.00 0.00 86 1013.9
20260508011803 47 0 0.0 0.0 0.00 0.00 0.00 86 1013.8
20260508010903 47 0 0.0 0.0 0.00 0.00 0.00 86 1013.8
20260508010003 47 0 0.0 0.0 0.00 0.00 0.00 86 1013.8
20260508005403 47 0 0.0 0.0 0.00 0.00 0.00 86 1013.9
20260508004503 47 0 0.0 0.0 0.00 0.00 0.00 86 1014.0
20260508003603 47 0 0.0 0.0 0.00 0.00 0.00 85 1014.0
20260508002703 47 0 0.0 0.0 0.00 0.00 0.00 85 1014.0
20260508001803 47 0 0.0 0.0 0.00 0.00 0.00 85 1014.0
20260508000903 47 0 0.0 0.0 0.00 0.00 0.00 85 1014.0
20260508000003 47 235 1.0 2.0 0.00 0.00 0.00 84 1014.1
20260507235403 47 235 0.0 2.0 0.00 0.00 0.00 84 1014.1
20260507234503 47 0 0.0 0.0 0.00 0.00 0.00 84 1014.1
20260507233603 47 0 0.0 0.0 0.00 0.00 0.00 84 1014.1
20260507232703 47 235 1.0 2.0 0.00 0.00 0.00 83 1014.1
20260507231803 47 235 1.0 2.0 0.00 0.00 0.00 83 1014.2
20260507230903 48 235 1.0 2.0 0.00 0.00 0.00 83 1014.2
20260507230003 48 235 0.0 2.0 0.00 0.00 0.00 83 1014.1
20260507225403 48 235 0.0 2.0 0.00 0.00 0.00 82 1014.1
20260507224504 48 235 0.0 1.0 0.00 0.00 0.00 82 1014.1
20260507223603 49 235 1.0 2.0 0.00 0.00 0.00 82 1014.1
20260507222703 49 235 1.0 2.0 0.00 0.00 0.00 82 1014.1
20260507221803 49 235 1.0 2.0 0.00 0.00 0.00 81 1014.2
20260507220903 49 235 0.0 2.0 0.00 0.00 0.00 81 1014.2
20260507220003 49 235 0.0 2.0 0.00 0.00 0.00 81 1014.2
20260507215403 49 235 1.0 2.0 0.00 0.00 0.00 81 1014.1
20260507214503 49 235 1.0 3.0 0.00 0.00 0.00 81 1014.1
20260507213603 49 235 1.0 3.0 0.00 0.00 0.00 81 1014.0
20260507212703 49 235 1.0 3.0 0.00 0.00 0.00 80 1014.0
20260507211803 49 235 0.0 2.0 0.00 0.00 0.00 80 1014.0
20260507210903 49 235 0.0 2.0 0.00 0.00 0.00 79 1013.9
20260507210003 50 226 0.0 3.0 0.00 0.00 0.00 79 1013.8
20260507205403 50 205 1.0 4.0 0.00 0.00 0.00 79 1013.8
20260507204503 50 201 2.0 4.0 0.00 0.00 0.00 78 1013.6
20260507203603 50 203 2.0 4.0 0.00 0.00 0.00 77 1013.6
20260507202703 50 204 2.0 4.0 0.00 0.00 0.00 77 1013.5
20260507201803 51 192 2.0 5.0 0.00 0.00 0.00 76 1013.5
20260507200903 51 191 2.0 6.0 0.00 0.00 0.00 75 1013.4
20260507200003 51 198 2.0 6.0 0.00 0.00 0.00 75 1013.3
20260507195403 51 206 2.0 8.0 0.00 0.00 0.00 75 1013.3
20260507194503 52 199 3.0 8.0 0.00 0.00 0.00 75 1013.3
20260507193603 52 188 3.0 7.0 0.00 0.00 0.00 74 1013.1
20260507192703 52 197 3.0 7.0 0.00 0.00 0.00 74 1013.1
20260507191803 52 187 3.0 6.0 0.00 0.00 0.00 74 1013.0
20260507190903 53 191 3.0 8.0 0.00 0.00 0.00 73 1013.0
20260507190004 53 219 3.0 8.0 0.00 0.00 0.00 72 1013.0
20260507185403 53 226 3.0 7.0 0.00 0.00 0.00 72 1013.0
20260507184503 54 210 3.0 7.0 0.00 0.00 0.00 72 1013.0
20260507183603 54 230 4.0 9.0 0.00 0.00 0.00 72 1012.9
20260507182703 54 236 4.0 8.0 0.00 0.00 0.00 72 1012.9
20260507181803 54 223 3.0 8.0 0.00 0.00 0.00 72 1012.9
20260507180903 54 198 3.0 8.0 0.00 0.00 0.00 72 1012.8
20260507180003 54 197 3.0 10.0 0.00 0.00 0.00 71 1012.9
20260507175403 54 197 4.0 10.0 0.00 0.00 0.00 71 1012.8
20260507174503 54 205 4.0 7.0 0.00 0.00 0.00 72 1012.8
20260507173603 54 185 6.0 11.0 0.00 0.00 0.00 71 1012.9
20260507172703 54 180 7.0 15.0 0.00 0.00 0.00 70 1012.8
20260507171803 54 185 5.0 14.0 0.00 0.00 0.00 70 1012.9
20260507170903 54 188 5.0 12.0 0.00 0.00 0.00 70 1013.0
20260507170003 54 190 4.0 9.0 0.00 0.00 0.00 70 1013.0
20260507165403 55 188 4.0 9.0 0.00 0.00 0.00 70 1013.0
20260507164503 54 185 4.0 10.0 0.00 0.00 0.00 70 1013.0
20260507163603 53 217 4.0 11.0 0.00 0.00 0.00 71 1013.0
20260507162703 53 195 5.0 9.0 0.00 0.00 0.00 71 1012.9
20260507161803 53 196 4.0 9.0 0.00 0.00 0.00 73 1012.9
20260507160903 53 186 6.0 13.0 0.00 0.00 0.00 72 1012.9
20260507160003 54 188 6.0 11.0 0.00 0.00 0.00 73 1012.9
20260507155403 54 192 5.0 9.0 0.00 0.00 0.00 72 1013.0
20260507154503 54 183 6.0 12.0 0.00 0.00 0.00 72 1013.0
20260507153603 54 182 6.0 14.0 0.00 0.00 0.00 72 1013.0
20260507152703 54 181 7.0 12.0 0.00 0.00 0.00 71 1012.9
20260507151803 54 182 7.0 12.0 0.00 0.00 0.00 70 1012.9
20260507150903 54 181 8.0 15.0 0.00 0.00 0.00 70 1012.9
20260507150003 54 178 8.0 15.0 0.00 0.00 0.00 69 1012.9
20260507145403 55 183 5.0 14.0 0.00 0.00 0.00 68 1012.8
20260507144503 55 191 5.0 11.0 0.00 0.00 0.00 68 1012.9
20260507143603 55 190 5.0 11.0 0.00 0.00 0.00 69 1012.9
20260507142703 55 194 4.0 9.0 0.00 0.00 0.00 68 1013.0
20260507141803 55 207 4.0 12.0 0.00 0.00 0.00 68 1013.0
20260507140903 55 205 6.0 14.0 0.00 0.00 0.00 68 1013.1
20260507140003 55 176 8.0 14.0 0.00 0.00 0.00 69 1013.0
20260507135403 55 177 9.0 15.0 0.00 0.00 0.00 67 1013.0
20260507134503 55 186 5.0 12.0 0.00 0.00 0.00 68 1013.1
20260507133603 55 193 5.0 12.0 0.00 0.00 0.00 69 1013.1
20260507132703 54 187 6.0 14.0 0.00 0.00 0.00 68 1013.2
20260507131803 54 184 7.0 13.0 0.00 0.00 0.00 68 1013.1
20260507130903 54 175 9.0 14.0 0.00 0.00 0.00 69 1013.1
20260507130003 55 179 8.0 15.0 0.00 0.00 0.00 68 1013.1
20260507125403 56 182 7.0 15.0 0.00 0.00 0.00 67 1013.2
20260507124503 56 180 8.0 15.0 0.00 0.00 0.00 65 1013.2
20260507123603 57 180 7.0 16.0 0.00 0.00 0.00 66 1013.3
20260507122705 57 179 7.0 13.0 0.00 0.00 0.00 65 1013.3
20260507121803 56 215 5.0 10.0 0.00 0.00 0.00 68 1013.3
20260507120903 55 185 6.0 13.0 0.00 0.00 0.00 66 1013.3
20260507120003 56 200 5.0 10.0 0.00 0.00 0.00 68 1013.3
20260507115403 55 189 6.0 13.0 0.00 0.00 0.00 68 1013.3
20260507114503 55 183 7.0 13.0 0.00 0.00 0.00 70 1013.3
20260507113603 54 192 6.0 13.0 0.00 0.00 0.00 70 1013.3
20260507112703 55 194 5.0 11.0 0.00 0.00 0.00 71 1013.3
20260507111803 55 219 5.0 11.0 0.00 0.00 0.00 70 1013.2
20260507110903 56 199 6.0 13.0 0.00 0.00 0.00 69 1013.2
20260507110003 57 213 3.0 9.0 0.00 0.00 0.00 63 1013.3
20260507105403 57 225 3.0 7.0 0.00 0.00 0.00 59 1013.3
20260507104503 58 193 3.0 7.0 0.00 0.00 0.00 60 1013.3
20260507103603 59 215 3.0 7.0 0.00 0.00 0.00 57 1013.3
20260507102703 60 245 3.0 9.0 0.00 0.00 0.00 56 1013.3
20260507101803 59 218 3.0 7.0 0.00 0.00 0.00 53 1013.2
20260507100903 59 239 5.0 11.0 0.00 0.00 0.00 54 1013.3
20260507100003 58 240 4.0 11.0 0.00 0.00 0.00 55 1013.4
20260507095403 58 240 4.0 9.0 0.00 0.00 0.00 61 1013.3
20260507094503 58 247 3.0 9.0 0.00 0.00 0.00 62 1013.3
20260507093603 57 242 4.0 10.0 0.00 0.00 0.00 62 1013.3
20260507092703 58 238 4.0 9.0 0.00 0.00 0.00 64 1013.2
20260507091803 57 238 3.0 9.0 0.00 0.00 0.00 68 1013.1
20260507090903 56 232 3.0 7.0 0.00 0.00 0.00 71 1013.2
20260507090003 55 245 2.0 5.0 0.00 0.00 0.00 73 1013.3
20260507085403 54 253 3.0 7.0 0.00 0.00 0.00 74 1013.3
20260507084503 53 244 3.0 7.0 0.00 0.00 0.00 76 1013.1
20260507083603 52 248 3.0 7.0 0.00 0.00 0.00 79 1013.1
20260507082703 51 238 2.0 7.0 0.00 0.00 0.00 79 1013.1
20260507081803 51 207 2.0 6.0 0.00 0.00 0.00 80 1013.2
20260507080903 50 221 2.0 5.0 0.00 0.00 0.00 81 1013.1
20260507080003 49 207 1.0 3.0 0.00 0.00 0.00 82 1013.1
20260507075403 49 215 1.0 4.0 0.00 0.00 0.00 82 1013.1
20260507074503 48 224 2.0 4.0 0.00 0.00 0.00 83 1013.1
20260507073603 48 238 1.0 5.0 0.00 0.00 0.00 83 1013.0
20260507072703 47 228 1.0 5.0 0.00 0.00 0.00 83 1012.9
20260507071803 47 240 2.0 5.0 0.00 0.00 0.00 84 1012.9
20260507070903 47 242 2.0 6.0 0.00 0.00 0.00 84 1012.9
20260507070004 46 245 2.0 6.0 0.00 0.00 0.00 85 1012.8
20260507065403 46 249 2.0 6.0 0.00 0.00 0.00 85 1012.8
20260507064503 46 249 1.0 5.0 0.00 0.00 0.00 86 1012.8
20260507063603 45 252 2.0 4.0 0.00 0.00 0.00 85 1012.9
20260507062703 45 255 3.0 5.0 0.00 0.00 0.00 86 1012.9
20260507061803 45 252 3.0 6.0 0.00 0.00 0.00 86 1012.9
20260507060903 45 249 3.0 6.0 0.00 0.00 0.00 86 1012.9
20260507060003 45 243 3.0 7.0 0.00 0.00 0.00 86 1012.8
20260507055403 45 240 3.0 5.0 0.00 0.00 0.00 86 1012.7
20260507054503 45 244 3.0 5.0 0.00 0.00 0.00 87 1012.8
20260507053603 45 250 3.0 4.0 0.00 0.00 0.00 87 1012.7
20260507052703 45 241 3.0 6.0 0.00 0.00 0.00 87 1012.8
20260507051803 45 246 3.0 6.0 0.00 0.00 0.00 87 1012.8
20260507050903 45 242 2.0 5.0 0.00 0.00 0.00 87 1012.7
20260507050003 45 242 3.0 5.0 0.00 0.00 0.00 87 1012.7
20260507045403 45 243 3.0 6.0 0.00 0.00 0.00 87 1012.6
20260507044503 45 240 2.0 5.0 0.00 0.00 0.00 87 1012.7
20260507043603 45 246 3.0 6.0 0.00 0.00 0.00 87 1012.7
20260507042703 45 233 2.0 4.0 0.00 0.00 0.00 87 1012.7
20260507041803 45 0 0.0 0.0 0.00 0.00 0.00 87 1012.7
20260507040903 45 229 0.0 2.0 0.00 0.00 0.00 87 1012.7
20260507040003 45 229 0.0 4.0 0.00 0.00 0.00 87 1012.7
20260507035403 46 229 0.0 4.0 0.00 0.00 0.00 87 1012.6
20260507034503 46 229 1.0 3.0 0.00 0.00 0.00 87 1012.6
20260507033603 46 229 0.0 1.0 0.00 0.00 0.00 86 1012.6
20260507032703 46 229 0.0 1.0 0.00 0.00 0.00 86 1012.6
20260507031803 46 229 0.0 2.0 0.00 0.00 0.00 86 1012.6
20260507030903 46 229 0.0 2.0 0.00 0.00 0.00 86 1012.7